This is the latest recevied weather packets stored in our database for station/object N0QV. If no packets are shown the sender has not sent any weather packets the latest 10 day(s).
| Time | Temp. | Humidity | Pressure | Rain* | Wind** | Luminosity | Snow |
|---|---|---|---|---|---|---|---|
| 1777511066 | 11.67° C | 45% | 1016.4 hPa | 0 mm | - | 6 W/m² | - |
| 1777510762 | 11.67° C | 45% | 1016.9 hPa | 0 mm | - | 10 W/m² | - |
| 1777510460 | 12.22° C | 45% | 1016.5 hPa | 0 mm | - | 10 W/m² | - |
| 1777510155 | 12.22° C | 45% | 1016.8 hPa | 0 mm | - | 12 W/m² | - |
| 1777509853 | 12.22° C | 44% | 1016.6 hPa | 0 mm | - | 15 W/m² | - |
| 1777509553 | 12.22° C | 44% | 1016.5 hPa | 0 mm | - | 17 W/m² | - |
| 1777509250 | 12.22° C | 44% | 1016.5 hPa | 0 mm | - | 22 W/m² | - |
| 1777508947 | 12.22° C | 43% | 1016.6 hPa | 0 mm | - | 25 W/m² | - |
| 1777508644 | 12.78° C | 44% | 1016.6 hPa | 0 mm | - | 28 W/m² | - |
| 1777508341 | 12.78° C | 43% | 1016.6 hPa | 0 mm | - | 32 W/m² | - |
| 1777508038 | 12.78° C | 43% | 1016.9 hPa | 0 mm | - | 23 W/m² | - |
| 1777507735 | 12.78° C | 42% | 1016.6 hPa | 0 mm | - | 19 W/m² | - |
| 1777507432 | 12.78° C | 43% | 1016.9 hPa | 0 mm | - | 20 W/m² | - |
| 1777507129 | 12.78° C | 42% | 1016.8 hPa | 0 mm | - | 28 W/m² | - |
| 1777506827 | 12.78° C | 41% | 1016.8 hPa | 0 mm | - | 39 W/m² | - |
| 1777506524 | 12.78° C | 41% | 1016.8 hPa | 0 mm | - | 34 W/m² | - |
| 1777506218 | 13.33° C | 41% | 1017 hPa | 0 mm | - | 65 W/m² | - |
| 1777505916 | 13.33° C | 41% | 1016.9 hPa | 0 mm | - | 78 W/m² | - |
| 1777505611 | 13.33° C | 40% | 1017 hPa | 0 mm | - | 82 W/m² | - |
| 1777505309 | 13.33° C | 42% | 1016.6 hPa | 0 mm | - | 75 W/m² | - |
| 1777505005 | 13.33° C | 40% | 1016.6 hPa | 0 mm | - | 61 W/m² | - |
| 1777504702 | 13.89° C | 40% | 1016.8 hPa | 0 mm | - | 119 W/m² | - |
| 1777504400 | 13.89° C | 41% | 1017.1 hPa | 0 mm | - | 100 W/m² | - |
| 1777504100 | 13.33° C | 41% | 1016.6 hPa | 0 mm | - | 171 W/m² | - |
| 1777503796 | 13.33° C | 41% | 1016.9 hPa | 0 mm | - | 137 W/m² | - |
* Rain latest hour (hover to see other rain measurements)
** Current wind speed in m/s (hover to see current wind gust speed)